Regional Weather Roundup
Issued by NWS Kansas City/Pleasant Hill, MO

Home | Current Version | Previous Version | Graphics & Text | Print | Product List | Glossary Off
Versions: 1 2 3 4 5 6 7 8 9 10 11 12 13 14 15 16 17 18 19 20 21 22 23 24 25 26 27 28 29 30 31 32 33 34 35 36 37 38 39 40 41 42 43 44 45 46 47 48 49 50

266
ASUS43 KEAX 230010
RWREAX

WEATHER ROUNDUP FOR EASTERN KANSAS AND NORTHWEST MISSOURI
NATIONAL WEATHER SERVICE KANSAS CITY/PLEASANT HILL MO
700 PM CDT FRI JUL 22 2016

KSZ040-057-103>105-MOZ028-029-037-043-230100-
...KANSAS CITY METROPOLITAN AREA...

CITY           SKY/WX    TMP DP  RH WIND       PRES   REMARKS
K.C. INTL      SUNNY     91  80  70 S8        29.95S HX 109
6HR MIN TEMP:  87; 6HR MAX TEMP:  93;

K.C. DOWNTOWN  SUNNY     94  76  55 S10G20    29.94R HX 106
6HR MIN TEMP:  88; 6HR MAX TEMP:  96;

LEES SUMMIT    SUNNY     93  76  57 S12       29.97S HX 105
6HR MIN TEMP:  86; 6HR MAX TEMP:  95;

OLATHE - IXD   SUNNY     95  74  50 S8        29.96S HX 105
6HR MIN TEMP:  91; 6HR MAX TEMP:  95;

OLATHE - OJC   SUNNY     91  78  65 SE9       29.97S HX 106
6HR MIN TEMP:  87; 6HR MAX TEMP:  92;

LAWRENCE       CLOUDY    92  74  55 S6        29.93S HX 101

$$

MOZ001>008-011>017-020>025-030>033-038>040-044>046-053-054-230100-
...NORTHERN AND CENTRAL MISSOURI...

CITY           SKY/WX    TMP DP  RH WIND       PRES   REMARKS
ST. JOSEPH     MOSUNNY   93  78  61 S9        29.92F HX 108
6HR MIN TEMP:  87; 6HR MAX TEMP:  94;

MOSBY          CLEAR     91  77  62 SE5       29.95S HX 105
WHITEMAN AFB   MOSUNNY   91  77  65 SW9       29.97F HX 104
6HR MIN TEMP:  86; 6HR MAX TEMP:  93;

CLINTON        SUNNY     91  79  66 CALM      29.98F HX 107
SEDALIA        SUNNY     92  75  57 SW6       30.00S HX 103
6HR MIN TEMP:  88; 6HR MAX TEMP:  93;

WARSAW         NOT AVBL
CHILLICOTHE      N/A     91  78  65 S5        29.97F HX 106
6HR MIN TEMP:  86; 6HR MAX TEMP:  92;

KIRKSVILLE     MOSUNNY   88  75  65 S5        30.00S HX  97
6HR MIN TEMP:  85; 6HR MAX TEMP:  90;


$$

MOZ041-047>049-056>058-063>065-088>090-097-230100-
...EASTERN AND SOUTHERN MISSOURI...

CITY           SKY/WX    TMP DP  RH WIND       PRES   REMARKS
ST. LOUIS INTL PTSUNNY   85  70  60 SE5       30.01R
6HR MIN TEMP:  80; 6HR MAX TEMP:  86;

SPIRIT OF STL  CLOUDY    83  76  79 SW5       29.99S HX  91
COLUMBIA       MOSUNNY   87  78  74 SE8       30.00S HX 100
JEFFERSON CITY PTSUNNY   88  76  67 E8        29.98S HX  99
ROLLA          MOSUNNY   86  77  74 E5        30.01S HX  97
OSAGE BEACH    MOSUNNY   91  77  63 S3        30.00F HX 104
SPRINGFIELD    SUNNY     94  68  42 SW6       30.01S HX  98
BRANSON        PTSUNNY   91  75  59 CALM      30.04R HX 102
JOPLIN         SUNNY     93  71  48 S6        29.99S HX 100
WEST PLAINS    CLOUDY    93  71  48 N3        30.03F HX 100

$$

IAZ060-094-KSZ022-034>040-054-083-096-NEZ052-066-093-230100-
...KANSAS...SOUTHEAST NEBRASKA AND IOWA...

CITY           SKY/WX    TMP DP  RH WIND       PRES   REMARKS
TOPEKA         SUNNY     96  72  45 S7        29.91F HX 104
6HR MIN TEMP:  96; 6HR MAX TEMP: 100;

MANHATTAN      CLOUDY    91  76  61 SE3       29.90F HX 103
EMPORIA        SUNNY     95  71  45 S9        29.94F HX 102
CHANUTE        SUNNY     94  74  52 S7        29.95F HX 104
WICHITA        MOSUNNY   99  69  37 SE16      29.90F HX 105
OMAHA          PTSUNNY   93  80  65 S10       29.89F HX 112
LINCOLN        PTSUNNY   90  73  57 S7        29.90F HX  98
FALLS CITY     MOSUNNY   92  76  59 S6        29.90S HX 104
LAMONI         CLOUDY    85  78  80 SE6       29.97F HX  96
DES MOINES     MOSUNNY   90  77  65 S8        29.95S HX 103

$$





USA.gov is the U.S. government's official web portal to all federal, state and local government web resources and services.